[[{"header":{"parameterUnit":"m.s-1","parameterCategory":1,"la1":30.2991,"la2":30.254,"lo1":-89.0895,"lo2":-89.0444,"dy":0.0017,"dx":0.0017,"nx":28,"ny":28,"refTime":"2024-12-12T03:00:00:Z","depth":0,"parameterNumber":2,"parameterNumberName":"U-component_of_WINDS"},"data":[0,0,0,0,0,0,0,0,0,0,0,0,0,0,0,0,0,0,0,0,0,0,0,0,0,0,0,0,0,0,0,0,0,0,0,0,0,0,0,0,0,0,0,0,0,0,0,0,0,0,0,0,0,0,0,0,0,0,-4.468,-4.4681,0,-4.4756,-4.4757,-4.4757,-4.4621,-4.4617,-4.4612,-4.4608,-4.4691,-4.4698,-4.4704,0,0,0,0,0,0,0,0,0,0,0,0,0,-4.4423,-4.4429,-4.468,-4.4681,-4.4682,-4.4756,-4.4757,-4.4758,-4.4622,-4.4617,-4.4611,-4.4606,-4.4689,-4.4697,-4.4705,0,0,0,0,0,0,0,0,0,0,0,0,0,-4.4521,-4.4431,-4.468,-4.4623,-4.4619,-4.4755,-4.4757,-4.4758,-4.4623,-4.4616,-4.461,-4.4603,-4.4687,-4.4696,-4.4706,-4.4903,0,0,-4.4736,-4.474,0,0,0,0,0,0,0,0,-4.4515,-4.453,-4.4631,-4.4627,-4.4623,-4.4672,-4.4696,-4.4807,-4.4625,-4.4622,-4.4608,-4.46,-4.4691,-4.47,-4.4729,-4.4907,-4.4911,-4.4736,-4.4742,-4.4747,-4.4749,0,0,0,0,0,0,0,-4.4509,-4.4526,-4.471,-4.4632,-4.4627,-4.4595,-4.4602,-4.4717,-4.4694,-4.4622,-4.4612,-4.4622,-4.4687,-4.472,-4.473,-4.4912,-4.4736,-4.4745,-4.4751,-4.4755,-4.5255,-4.5262,0,0,0,0,0,0,-4.4508,-4.4522,-4.4708,-4.4712,-4.4551,-4.4606,-4.4612,-4.4663,-4.4692,-4.469,-4.4628,-4.4616,-4.4707,-4.4719,-4.4733,-4.4966,-4.4746,-4.4756,-4.4761,-4.5248,-4.5257,-4.5265,0,0,0,0,0,0,-4.4503,-4.4526,-4.4705,-4.4614,-4.4635,-4.4617,-4.4675,-4.4668,-4.4701,-4.4697,-4.4693,-4.4666,-4.4702,-4.4719,-4.4861,-4.4967,-4.476,-4.4769,-4.5239,-4.5251,-4.5261,-4.5436,0,0,0,0,0,0,-4.4497,-4.4525,-4.4599,-4.4617,-4.464,-4.4832,-4.4682,-4.4675,-4.4717,-4.4702,-4.4731,-4.473,-4.4698,-4.4848,-4.4871,-4.4977,-4.4776,-4.523,-4.5244,-4.5258,-4.542,-4.5451,-4.5478,0,0,0,0,0,-4.4488,-4.4647,-4.4604,-4.4627,-4.4732,-4.4838,-4.4851,-4.481,-4.4726,-4.4802,-4.4799,-4.4729,-4.4951,-4.4863,-4.4889,-4.4999,-4.5223,-4.524,-4.5256,-4.5408,-4.5445,-4.5477,0,0,0,0,0,0,-4.4645,-4.4648,-4.4601,-4.477,-4.4804,-4.4815,-4.4909,-4.4851,-4.4912,-4.4895,-4.4843,-4.4851,-4.5004,-4.5015,-4.4917,-4.5192,-4.5073,-4.5096,-4.5179,-4.5215,-4.5243,-4.5239,-4.4785,0,0,0,0,0,-4.4699,-4.4783,-4.4782,-4.4931,-4.4951,-4.4927,-4.4972,-4.4936,-4.4971,-4.4986,-4.4993,-4.5031,-4.5109,-4.5162,-4.5234,-4.542,-4.5425,-4.5508,-4.5537,-4.556,-4.5582,-4.5682,-4.5719,-4.532,-4.532,-4.532,0,0,-4.4813,-4.4824,-4.4881,-4.4963,-4.4986,-4.5076,-4.494,-4.5042,-4.5108,-4.5001,-4.5136,-4.5143,-4.5182,-4.5347,-4.542,-4.5361,-4.5692,-4.5582,-4.5601,-4.5609,-4.5703,-4.574,-4.5774,-4.5332,-4.533,-4.5328,0,0,-4.5065,-4.5082,-4.5209,-4.5233,-4.5268,-4.525,-4.5281,-4.5299,-4.5299,-4.5433,-4.5354,-4.5433,-4.5569,-4.56,-4.5633,-4.5895,-4.5833,-4.592,-4.6072,-4.6169,-4.6201,-4.6228,-4.6323,-4.6358,-4.594,-4.5941,-4.5941,0,-4.5203,-4.5334,-4.5281,-4.5388,-4.5427,-4.533,-4.5459,-4.5486,-4.5544,-4.5574,-4.5505,-4.5673,-4.5692,-4.5863,-4.5927,-4.5956,-4.5991,-4.5918,-4.62,-4.6227,-4.6252,-4.6342,-4.6378,-4.5951,-4.595,-4.5949,-4.5948,0,-4.5502,-4.5593,-4.5691,-4.5747,-4.5796,-4.5914,-4.588,-4.5937,-4.5896,-4.5886,-4.6024,-4.6043,-4.6117,-4.6154,-4.6116,-4.632,-4.6282,-4.6208,-4.6089,-4.6302,-4.6385,-4.6419,-4.5966,-4.5962,-4.5959,-4.5956,0,0,-4.586,-4.5882,-4.592,-4.5944,-4.5973,-4.6044,-4.6157,-4.6226,-4.6277,-4.6319,-4.6413,-4.6528,-4.6459,-4.6497,-4.6462,-4.6547,-4.6755,-4.6462,-4.6462,-4.6518,-4.6982,-4.704,-4.7081,-4.6712,-4.6719,-4.6724,-4.6979,0,-4.6113,-4.6305,-4.626,-4.6451,-4.6535,-4.6444,-4.6541,-4.6571,-4.6565,-4.6636,-4.6628,-4.6712,-4.6613,-4.6636,-4.6716,-4.6713,-4.6848,-4.6693,-4.6802,-4.6807,-4.6798,-4.7124,-4.7186,-4.7427,-4.7012,-4.7017,-4.7021,0,-4.6434,-4.6486,-4.6685,-4.67,-4.6734,-4.6823,-4.6882,-4.6951,-4.6983,-4.6972,-4.7013,-4.696,-4.7073,-4.6949,-4.7104,-4.7,-4.7041,-4.7046,-4.7054,-4.7066,-4.6929,-4.7147,-4.7502,-4.754,-4.7072,-4.7068,-4.7064,0,-4.6678,-4.6798,-4.6932,-4.6955,-4.6975,-4.704,-4.7052,-4.7076,-4.7121,-4.7173,-4.7202,-4.7267,-4.7304,-4.7357,-4.7323,-4.7236,-4.7485,-4.7358,-4.7481,-4.7482,-4.754,-4.7538,-4.7911,-4.7562,-4.7562,-4.7561,-4.756,0,-4.6967,-4.7093,-4.7042,-4.7125,-4.7263,-4.721,-4.7348,-4.7349,-4.7372,-4.7454,-4.7378,-4.7458,-4.7407,-4.7483,-4.7457,-4.759,-4.7607,-4.7603,-4.7595,-4.7611,-4.7612,-4.764,-4.7624,-4.7571,-4.7569,-4.7567,-4.7565,0,-4.7265,-4.7235,-4.7376,-4.7382,-4.7387,-4.7489,-4.7495,-4.7573,-4.7558,-4.7664,-4.7685,-4.7664,-4.7749,-4.7719,-4.7811,-4.7793,-4.7963,-4.7933,-4.7953,-4.7946,-4.8071,-4.8061,-4.8477,-4.853,-4.8145,-4.8149,-4.8152,0,-4.7453,-4.7547,-4.7563,-4.7612,-4.7628,-4.7708,-4.7752,-4.7702,-4.7752,-4.7794,-4.7867,-4.7944,-4.8004,-4.8144,-4.8138,-4.8207,-4.8179,-4.832,-4.819,-4.8203,-4.8184,-4.818,-4.819,-4.8348,-4.8352,-4.8356,-4.8359,0,-4.7791,-4.777,-4.7836,-4.7897,-4.7951,-4.7997,-4.8036,-4.808,-4.8033,-4.8092,-4.8177,-4.8223,-4.8314,-4.8393,-4.8455,-4.8468,-4.8408,-4.8399,-4.8431,-4.8451,-4.8459,-4.8458,-4.8027,-4.8391,-4.8388,-4.8385,-4.8383,-4.8382,-4.8041,-4.812,-4.8143,-4.8219,-4.8242,-4.828,-4.8353,-4.8346,-4.8415,-4.8485,-4.8451,-4.855,-4.8577,-4.8654,-4.8675,-4.8752,-4.8698,-4.8745,-4.8757,-4.877,-4.8787,-4.8444,-4.8763,-4.8762,-4.8761,-4.8761,-4.876,0,-4.8376,-4.8385,-4.8455,-4.8511,-4.857,-4.8503,-4.8542,-4.8597,-4.8684,-4.8714,-4.8773,-4.8871,-4.8946,-4.8944,-4.9014,-4.9076,-4.905,-4.9096,-4.9093,-4.9097,-4.8831,-4.8797,-4.9116,-4.9116,-4.9116,-4.9116,-4.9116,-4.9116,-4.8558,-4.8689,-4.8671,-4.8813,-4.8821,-4.8915,-4.8944,-4.8979,-4.9002,-4.9113,-4.9175,-4.9171,-4.9189,-4.9259,-4.9325,-4.9323,-4.9353,-4.9411,-4.9399,-4.9151,-4.9116,-4.9082,-4.905,-4.9418,-4.9418,-4.9659,-4.9661,-4.9663]},{"header":{"parameterUnit":"m.s-1","parameterCategory":1,"la1":30.2991,"la2":30.254,"lo1":-89.0895,"lo2":-89.0444,"dy":0.0017,"dx":0.0017,"nx":28,"ny":28,"refTime":"2024-12-12T03:00:00:Z","depth":0,"parameterNumber":3,"parameterNumberName":"V-component_of_WINDS"},"data":[0,0,0,0,0,0,0,0,0,0,0,0,0,0,0,0,0,0,0,0,0,0,0,0,0,0,0,0,0,0,0,0,0,0,0,0,0,0,0,0,0,0,0,0,0,0,0,0,0,0,0,0,0,0,0,0,0,0,-2.7959,-2.796,0,-2.8024,-2.8024,-2.8025,-2.7983,-2.7981,-2.7979,-2.7977,-2.8042,-2.8046,-2.8049,0,0,0,0,0,0,0,0,0,0,0,0,0,-2.7797,-2.7801,-2.7959,-2.796,-2.7961,-2.8023,-2.8024,-2.8025,-2.7983,-2.7981,-2.7978,-2.7976,-2.8041,-2.8045,-2.8049,0,0,0,0,0,0,0,0,0,0,0,0,0,-2.7865,-2.7802,-2.7959,-2.7947,-2.7947,-2.8023,-2.8024,-2.8025,-2.7983,-2.798,-2.7978,-2.7975,-2.804,-2.8045,-2.805,-2.8142,0,0,-2.8066,-2.8069,0,0,0,0,0,0,0,0,-2.7861,-2.7871,-2.7948,-2.7948,-2.7948,-2.7992,-2.7991,-2.8064,-2.7984,-2.7969,-2.7977,-2.7973,-2.8028,-2.8034,-2.8052,-2.8145,-2.8147,-2.8067,-2.807,-2.8072,-2.8074,0,0,0,0,0,0,0,-2.7857,-2.7868,-2.7984,-2.7949,-2.7949,-2.7938,-2.7944,-2.8005,-2.8014,-2.797,-2.7968,-2.7976,-2.8027,-2.8047,-2.8054,-2.8148,-2.8067,-2.8071,-2.8075,-2.8077,-2.8318,-2.8321,0,0,0,0,0,0,-2.7853,-2.7865,-2.7982,-2.7986,-2.7897,-2.7943,-2.795,-2.7981,-2.8013,-2.8016,-2.7978,-2.7974,-2.804,-2.8047,-2.8056,-2.8165,-2.8072,-2.8077,-2.808,-2.8314,-2.8318,-2.8322,0,0,0,0,0,0,-2.785,-2.7864,-2.798,-2.7925,-2.7939,-2.7949,-2.7984,-2.7984,-2.8004,-2.8019,-2.8021,-2.7997,-2.8038,-2.8048,-2.812,-2.8166,-2.808,-2.8085,-2.8311,-2.8316,-2.832,-2.8384,0,0,0,0,0,0,-2.7846,-2.7863,-2.7899,-2.7926,-2.7942,-2.8044,-2.7986,-2.7987,-2.8013,-2.8008,-2.8038,-2.804,-2.8036,-2.8113,-2.8126,-2.8172,-2.8089,-2.8307,-2.8313,-2.8319,-2.8378,-2.839,-2.8401,0,0,0,0,0,-2.784,-2.7914,-2.7901,-2.7915,-2.7986,-2.8047,-2.8056,-2.8051,-2.8017,-2.8052,-2.8062,-2.8039,-2.8159,-2.812,-2.8135,-2.8184,-2.8304,-2.8311,-2.8318,-2.8372,-2.8388,-2.84,0,0,0,0,0,0,-2.7892,-2.7918,-2.7903,-2.7988,-2.8016,-2.804,-2.8084,-2.8067,-2.8104,-2.8098,-2.8089,-2.8096,-2.8172,-2.8184,-2.8141,-2.8273,-2.8226,-2.8236,-2.8262,-2.8277,-2.8288,-2.8284,-2.8093,0,0,0,0,0,-2.7914,-2.7961,-2.798,-2.8054,-2.8068,-2.8074,-2.81,-2.8093,-2.8121,-2.8133,-2.8148,-2.8176,-2.8219,-2.8249,-2.829,-2.8379,-2.8384,-2.8419,-2.8431,-2.844,-2.845,-2.8497,-2.8512,-2.8345,-2.8345,-2.8345,0,0,-2.7959,-2.7978,-2.8009,-2.8065,-2.8085,-2.8134,-2.8084,-2.8138,-2.8174,-2.8141,-2.821,-2.8222,-2.8252,-2.8333,-2.8369,-2.8346,-2.8497,-2.8449,-2.8457,-2.8461,-2.8506,-2.8521,-2.8536,-2.835,-2.8349,-2.8349,0,0,-2.8065,-2.8085,-2.8148,-2.817,-2.8201,-2.8204,-2.8219,-2.8246,-2.8252,-2.8321,-2.8297,-2.8339,-2.8415,-2.8438,-2.8459,-2.8573,-2.8553,-2.8586,-2.8647,-2.8694,-2.8707,-2.8718,-2.8759,-2.8774,-2.8595,-2.8596,-2.8596,0,-2.8117,-2.8191,-2.8183,-2.8239,-2.8264,-2.8235,-2.8299,-2.832,-2.8363,-2.8381,-2.8354,-2.8448,-2.8467,-2.8552,-2.8579,-2.8598,-2.8614,-2.8584,-2.8705,-2.8717,-2.8728,-2.8766,-2.8782,-2.8599,-2.8599,-2.8599,-2.8598,0,-2.8253,-2.8303,-2.835,-2.8393,-2.8423,-2.8483,-2.8483,-2.8514,-2.8505,-2.851,-2.858,-2.8601,-2.8646,-2.8665,-2.8656,-2.8749,-2.8734,-2.8707,-2.8659,-2.8748,-2.8784,-2.8799,-2.8605,-2.8604,-2.8603,-2.8602,0,0,-2.8396,-2.8432,-2.845,-2.8469,-2.8501,-2.854,-2.8597,-2.8641,-2.8668,-2.8698,-2.8746,-2.881,-2.8784,-2.8808,-2.8802,-2.8842,-2.893,-2.8809,-2.881,-2.8832,-2.9033,-2.9054,-2.9072,-2.8917,-2.8919,-2.8922,-2.9031,0,-2.8505,-2.8606,-2.8599,-2.8694,-2.8741,-2.8714,-2.8763,-2.8788,-2.8794,-2.8834,-2.8841,-2.8887,-2.885,-2.8864,-2.8903,-2.8912,-2.8971,-2.8903,-2.8961,-2.8963,-2.8955,-2.909,-2.9113,-2.9215,-2.9045,-2.9047,-2.9049,0,-2.8646,-2.8681,-2.878,-2.8804,-2.8824,-2.8869,-2.8908,-2.8946,-2.8973,-2.8975,-2.9001,-2.8987,-2.9044,-2.8995,-2.9073,-2.9027,-2.905,-2.9058,-2.9061,-2.9067,-2.9012,-2.91,-2.9248,-2.9264,-2.9071,-2.9069,-2.9068,0,-2.874,-2.8812,-2.8881,-2.8898,-2.8928,-2.896,-2.8974,-2.8998,-2.9024,-2.9058,-2.9075,-2.9114,-2.9137,-2.9167,-2.9164,-2.9128,-2.9244,-2.9194,-2.9247,-2.9247,-2.9273,-2.9272,-2.9427,-2.9287,-2.9286,-2.9286,-2.9286,0,-2.8863,-2.8925,-2.8924,-2.8966,-2.9034,-2.9026,-2.9093,-2.9103,-2.9125,-2.9168,-2.9147,-2.9187,-2.918,-2.9221,-2.9219,-2.9284,-2.9294,-2.9296,-2.9295,-2.9299,-2.9299,-2.9314,-2.9307,-2.929,-2.9289,-2.9289,-2.9288,0,-2.8981,-2.8983,-2.9056,-2.9078,-2.9085,-2.9134,-2.9152,-2.9192,-2.9196,-2.9251,-2.9263,-2.9269,-2.9316,-2.9315,-2.9368,-2.9367,-2.9446,-2.9437,-2.9438,-2.9436,-2.9489,-2.9484,-2.966,-2.9683,-2.9528,-2.9529,-2.953,0,-2.906,-2.9107,-2.9133,-2.9161,-2.9177,-2.9221,-2.9248,-2.9241,-2.927,-2.9303,-2.9339,-2.9383,-2.9419,-2.9494,-2.9503,-2.9543,-2.9535,-2.9593,-2.9541,-2.9543,-2.9536,-2.9533,-2.9538,-2.9604,-2.9606,-2.9607,-2.9608,0,-2.9199,-2.9197,-2.9237,-2.9277,-2.9309,-2.934,-2.9368,-2.9392,-2.9388,-2.9421,-2.9468,-2.9495,-2.9549,-2.9594,-2.9632,-2.9646,-2.9627,-2.9625,-2.9639,-2.9644,-2.9643,-2.9644,-2.9467,-2.9621,-2.962,-2.9619,-2.9618,-2.9618,-2.93,-2.934,-2.9365,-2.941,-2.943,-2.9457,-2.9495,-2.9503,-2.9543,-2.9587,-2.958,-2.9633,-2.9657,-2.9707,-2.9723,-2.9764,-2.9743,-2.9764,-2.977,-2.9775,-2.9781,-2.9635,-2.9771,-2.9771,-2.977,-2.977,-2.977,0,-2.9439,-2.9453,-2.9494,-2.9534,-2.9569,-2.9547,-2.9577,-2.9608,-2.9655,-2.9679,-2.9714,-2.9768,-2.9811,-2.9823,-2.9863,-2.9894,-2.9886,-2.9905,-2.9903,-2.9906,-2.9797,-2.9781,-2.991,-2.991,-2.991,-2.991,-2.991,-2.991,-2.9515,-2.9582,-2.9583,-2.9659,-2.9673,-2.9725,-2.9744,-2.9768,-2.9787,-2.9849,-2.9884,-2.9891,-2.991,-2.9952,-2.999,-2.9992,-3.0009,-3.0031,-3.003,-2.9928,-2.9914,-2.9901,-2.9885,-3.0035,-3.0035,-3.0136,-3.0136,-3.0137]}]]